Spokane Fairchild, WA
on Tuesday, December 11, 2012

Tuesday
Previous Day Next Day
Daily Summary
 ActualAverage (KGEG)Record (KGEG)
Temperature
Mean Temperature °F 27°F  
Max Temperature 37°F 32°F 55°F (1924)
Min Temperature 32°F 23°F -9°F (1922)
Degree Days
Heating Degree Days 30 38  
Month to date heating degree days 401  
Since 1 July heating degree days 2068  
Cooling Degree Days 0 0  
Month to date cooling degree days 0  
Year to date cooling degree days 450  
Moisture
Dew Point 34°F   
Average Humidity 100    
Maximum Humidity 100    
Minimum Humidity 100    
Precipitation
Precipitation 0.03 in 0.07 in 0.63 in (1955)
Month to date precipitation 0.89  
Year to date precipitation 15.15  
Snow
Snow 0.00 in 0.50 in 3.90 in (1894)
Month to date snowfall 4.7  
Since 1 July snowfall 12.2  
Snow Depth in   
Wind
Wind Speed 8 mph   
Max Wind Speed 15 mph   
Max Gust Speed mph   
Visibility 9 miles   
Events Rain , Snow   

Key: T is trace of precipitation, MM is missing value
Source: NWS Daily Summary
Time(PST)TemperatureDew PointHumidity Pressure Visibility Wind DirectionWind SpeedGust SpeedPrecipitationEvents Conditions
12:13 AM 32.0°F 32.0°F 100% 29.96 in 10.0 miles South 8.1 mph - N/A   Overcast
12:39 AM 32.0°F 32.0°F 100% 29.93 in 7.0 miles South 6.9 mph - N/A   Overcast
12:58 AM 32.9°F 32.9°F 100% 30.01 in 5.0 miles SSW 10.4 mph - 0.00 in   Overcast
12:59 AM 32.0°F 32.0°F 100% 29.93 in 6.0 miles South 11.5 mph - N/A   Overcast
1:01 AM 32.0°F 32.0°F 100% 29.93 in 7.0 miles SSW 11.5 mph - N/A   Overcast
1:17 AM 32.0°F 32.0°F 100% 29.93 in 10.0 miles SSW 11.5 mph - N/A   Overcast
1:37 AM 32.0°F 32.0°F 100% 29.92 in 10.0 miles SSW 10.4 mph - N/A   Overcast
1:58 AM 33.3°F 33.3°F 100% 29.99 in 10.0 miles South 9.2 mph - 0.00 in   Overcast
2:15 AM 32.0°F 32.0°F 100% 29.89 in 10.0 miles South 9.2 mph - N/A   Overcast
2:25 AM 32.0°F 32.0°F 100% 29.89 in 8.0 miles South 10.4 mph - N/A   Overcast
2:34 AM 32.0°F 32.0°F 100% 29.89 in 7.0 miles SSW 11.5 mph - N/A   Overcast
2:53 AM 33.8°F 33.8°F 100% 29.87 in 8.0 miles South 11.5 mph - N/A   Overcast
2:58 AM 33.8°F 33.8°F 100% 29.94 in 9.0 miles SSW 12.7 mph - 0.00 in   Overcast
3:03 AM 33.8°F 33.8°F 100% 29.86 in 10.0 miles South 13.8 mph - N/A   Overcast
3:09 AM 33.8°F 33.8°F 100% 29.86 in 10.0 miles South 11.5 mph - N/A   Overcast
3:14 AM 33.8°F 33.8°F 100% 29.85 in 10.0 miles South 10.4 mph - N/A   Overcast
3:19 AM 33.8°F 33.8°F 100% 29.84 in 10.0 miles South 15.0 mph - N/A   Overcast
3:39 AM 33.8°F 33.8°F 100% 29.83 in 10.0 miles South 11.5 mph - N/A   Overcast
3:58 AM 34.0°F 34.0°F 100% 29.90 in 10.0 miles SSW 9.2 mph - 0.00 in   Overcast
4:08 AM 33.8°F 33.8°F 100% 29.83 in 10.0 miles SSW 9.2 mph - N/A   Overcast
4:14 AM 33.8°F 33.8°F 100% 29.82 in 10.0 miles SSW 6.9 mph - N/A   Overcast
4:15 AM 33.8°F 33.8°F 100% 29.82 in 10.0 miles SSW 8.1 mph - N/A   Overcast
4:18 AM 33.8°F 33.8°F 100% 29.82 in 10.0 miles South 9.2 mph - N/A   Overcast
4:32 AM 33.8°F 33.8°F 100% 29.81 in 10.0 miles SSW 10.4 mph - N/A   Overcast
4:57 AM 33.8°F 33.8°F 100% 29.80 in 10.0 miles South 11.5 mph - N/A   Overcast
4:58 AM 33.8°F 33.8°F 100% 29.87 in 10.0 miles SSW 10.4 mph - 0.00 in   Overcast
5:13 AM 32.0°F 32.0°F 100% 29.79 in 10.0 miles South 8.1 mph - N/A   Overcast
5:28 AM 32.0°F 32.0°F 100% 29.78 in 10.0 miles South 8.1 mph - N/A   Mostly Cloudy
5:38 AM 32.0°F 32.0°F 100% 29.77 in 10.0 miles South 9.2 mph - N/A   Scattered Clouds
5:58 AM 33.3°F 33.3°F 100% 29.85 in 10.0 miles South 9.2 mph - N/A   Scattered Clouds
6:24 AM 32.0°F 32.0°F 100% 29.76 in 10.0 miles South 10.4 mph - N/A   Partly Cloudy
6:39 AM 32.0°F 32.0°F 100% 29.75 in 10.0 miles South 10.4 mph - N/A   Mostly Cloudy
6:58 AM 32.9°F 32.9°F 100% 29.82 in 10.0 miles South 8.1 mph - 0.00 in   Overcast
7:58 AM 33.3°F 33.3°F 100% 29.78 in 10.0 miles South 12.7 mph - N/A   Mostly Cloudy
8:58 AM 33.6°F 33.6°F 100% 29.75 in 10.0 miles South 11.5 mph - N/A   Scattered Clouds
9:58 AM 34.2°F 34.2°F 100% 29.73 in 10.0 miles South 6.9 mph - N/A   Scattered Clouds
10:58 AM 35.4°F 35.4°F 100% 29.72 in 10.0 miles SSW 9.2 mph - N/A   Scattered Clouds
11:58 AM 36.0°F 36.0°F 100% 29.69 in 10.0 miles South 6.9 mph - N/A   Overcast
12:24 PM 37.4°F 37.4°F 100% 29.61 in 10.0 miles South 8.1 mph - N/A   Mostly Cloudy
12:35 PM 37.4°F 37.4°F 100% 29.60 in 10.0 miles South 8.1 mph - N/A   Mostly Cloudy
12:58 PM 36.5°F 36.5°F 100% 29.65 in 10.0 miles SSE 8.1 mph - 0.00 in   Mostly Cloudy
1:58 PM 36.9°F 36.9°F 100% 29.61 in 10.0 miles SE 8.1 mph - N/A   Overcast
2:58 PM 37.2°F 37.2°F 100% 29.62 in 10.0 miles North 3.5 mph - N/A   Overcast
3:07 PM 37.4°F 37.4°F 100% 29.57 in 10.0 miles North 4.6 mph - N/A   Overcast
3:17 PM 35.6°F 35.6°F 100% 29.57 in 10.0 miles NNE 5.8 mph - N/A   Mostly Cloudy
3:55 PM 33.8°F 33.8°F 100% 29.55 in 10.0 miles NE 4.6 mph - N/A Rain Light Rain
3:58 PM 33.8°F 33.8°F 100% 29.61 in 10.0 miles NE 4.6 mph - 0.00 in Rain Light Rain
4:08 PM 33.8°F 33.8°F 100% 29.55 in 10.0 miles ESE 4.6 mph - N/A Rain Light Rain
4:13 PM 33.8°F 33.8°F 100% 29.55 in 10.0 miles South 3.5 mph - N/A Rain Light Rain
4:34 PM 35.6°F 35.6°F 100% 29.55 in 10.0 miles WSW 5.8 mph - N/A   Clear
4:39 PM 35.6°F 35.6°F 100% 29.55 in 10.0 miles WSW 5.8 mph - N/A Rain Light Rain
4:42 PM 35.6°F 35.6°F 100% 29.55 in 10.0 miles SW 5.8 mph - N/A   Scattered Clouds
4:45 PM 35.6°F 35.6°F 100% 29.55 in 10.0 miles WSW 5.8 mph - N/A Rain Light Rain
4:50 PM 35.6°F 35.6°F 100% 29.55 in 10.0 miles WSW 5.8 mph - N/A Rain Light Rain
4:58 PM 35.1°F 35.1°F 100% 29.61 in 10.0 miles WSW 4.6 mph - 0.00 in Rain Light Rain
5:13 PM 35.6°F 35.6°F 100% 29.55 in 10.0 miles SW 5.8 mph - N/A Rain Light Rain
5:20 PM 35.6°F 35.6°F 100% 29.55 in 10.0 miles SW 4.6 mph - N/A   Scattered Clouds
5:40 PM 33.8°F 33.8°F 100% 29.55 in 10.0 miles SE 2.3 mph - N/A   Mostly Cloudy
5:49 PM 35.6°F 35.6°F 100% 29.55 in 10.0 miles SE 3.5 mph - N/A Rain Light Rain
5:58 PM 34.7°F 34.7°F 100% 29.61 in 10.0 miles SSE 2.3 mph - 0.00 in Rain Light Rain
6:31 PM 35.6°F 35.6°F 100% 29.54 in 10.0 miles SSE 2.3 mph - N/A   Overcast
6:36 PM 33.8°F 33.8°F 100% 29.53 in 10.0 miles SE 3.5 mph - N/A   Overcast
6:58 PM 34.0°F 34.0°F 100% 29.59 in 10.0 miles South 5.8 mph - 0.00 in   Mostly Cloudy
7:58 PM 33.8°F 33.8°F 100% 29.60 in 10.0 miles South 6.9 mph - N/A   Overcast
8:03 PM 32.0°F 32.0°F 100% 29.53 in 10.0 miles South 6.9 mph - N/A   Overcast
8:08 PM 32.0°F 32.0°F 100% 29.53 in 10.0 miles South 5.8 mph - N/A   Overcast
8:13 PM 32.0°F 32.0°F 100% 29.53 in 10.0 miles South 5.8 mph - N/A   Overcast
8:23 PM 32.0°F 32.0°F 100% 29.53 in 10.0 miles South 4.6 mph - N/A   Overcast
8:25 PM 32.0°F 32.0°F 100% 29.53 in 10.0 miles South 5.8 mph - N/A   Overcast
8:35 PM 32.0°F 32.0°F 100% 29.53 in 10.0 miles South 3.5 mph - N/A   Overcast
8:40 PM 32.0°F 32.0°F 100% 29.53 in 10.0 miles South 3.5 mph - N/A   Overcast
8:50 PM 32.0°F 32.0°F 100% 29.53 in 10.0 miles South 3.5 mph - N/A   Overcast
8:55 PM 32.0°F 32.0°F 100% 29.54 in 10.0 miles South 2.3 mph - N/A   Overcast
8:58 PM 33.4°F 33.4°F 100% 29.60 in 10.0 miles South 2.3 mph - 0.00 in   Overcast
9:13 PM 32.0°F 32.0°F 100% 29.54 in 10.0 miles SSW 3.5 mph - N/A   Overcast
9:18 PM 32.0°F 32.0°F 100% 29.53 in 10.0 miles SW 2.3 mph - N/A   Overcast
9:23 PM 32.0°F 32.0°F 100% 29.53 in 10.0 miles SW 3.5 mph - N/A   Overcast
9:38 PM 32.0°F 32.0°F 100% 29.54 in 10.0 miles SSW 4.6 mph - N/A   Overcast
9:43 PM 32.0°F 32.0°F 100% 29.54 in 10.0 miles SSW 4.6 mph - N/A   Overcast
9:58 PM 32.0°F 32.0°F 100% 29.60 in 10.0 miles South 2.3 mph - N/A   Overcast
10:13 PM 32.0°F 32.0°F 100% 29.54 in 10.0 miles South 2.3 mph - N/A Rain Light Rain
10:23 PM 32.0°F 32.0°F 100% 29.54 in 10.0 miles Variable 1.2 mph - N/A Snow Light Snow
10:42 PM 32.0°F 32.0°F 100% 29.54 in 4.0 miles Calm Calm - N/A   Overcast
10:46 PM 32.0°F 32.0°F 100% 29.54 in 4.0 miles Calm Calm - N/A Rain Light Rain
10:58 PM 33.3°F 33.3°F 100% 29.60 in 10.0 miles Calm Calm - 0.00 in Rain Light Rain
11:13 PM 32.0°F 32.0°F 100% 29.54 in 8.0 miles East 2.3 mph - N/A Rain Light Rain
11:48 PM 32.0°F 32.0°F 100% 29.54 in 3.0 miles Calm Calm - N/A Snow Light Snow
11:53 PM 32.0°F 32.0°F 100% 29.54 in 2.5 miles Calm Calm - N/A Snow Light Snow
11:58 PM 32.0°F 32.0°F 100% 29.60 in 1.8 miles ENE 1.2 mph - 0.03 in Snow Light Snow
Moon Phase
Dec. 11 Dec. 13 Dec. 20 Dec. 28 Jan. 04
Sunrise:07:29 AM (PST) Moon Rise:05:25 AM (PST)12/11
Sunset:03:58 PM (PST) Moon Set:02:45 PM (PST)12/11

Copyright © 2014 The Weather Underground, Inc.